Showing default

INTELSAT 36, 41747

Orbit data source: Space-Track

INTELSAT 36, 41747 is a payload satellite owned by Intelsat SA (US) (US) in GEO that was launched on Wed, 24 Aug 2016 UTC via an ARIANE 5ECA launch vehicle from the French Guiana (FRGUI). Payload-class satellites include a variety of spacecraft equipped with specific instruments for various scientific and technological missions. These include communications satellites like Starlink; space stations such as the ISS; scientific satellites like the Hubble; Earth observation satellites from companies like Planet Labs, Umbra, and HawkEye 360; GPS; miniature CubeSats for education and research; and military/defense satellites.

Not visible in the next 10 days
Identifier
41747, 2016-053A
Orbit
GEO
Country
Flag of USUS / ITSO
Related business
Manufacturer
SS/Loral (MDA)
Mission
Operational Commercial Communications
Bus & Motor
LS-1300, R-4D
Mass
3,253 kg wet, ~1,800 kg dry
Launch date (UTC)
2016-08-24 (10 years ago)
Launch vehicle
ARIANE 5ECA
Launch site
French Guiana (FRGUI)
Object type
Payload
Rocket body
Debris
Shape & HBR
Box + 2 Pan, 12.3 m
Radar Cross Section
38.748 m², Large (>1 m²)

Expand to show TLE details & history
Last TLE update: 4 hours ago

TLE from 4 hours ago
0 INTELSAT 36
1 41747U 16053A   26166.48650425 -.00000022  00000-0  00000+0 0  9997
2 41747   0.0105 352.4669 0002181 338.7438 176.1996  1.00271041 35940
Epoch: 2026-06-15T11:40Z
TLE epoch observation values (Epoch: 2026-06-15T11:40:33.967Z)
Latitude
0.01502°
Longitude
68.50014°
Altitude
35,795.434 km
Speed
3.074 km/s
True Right ascension
09h 49m 39s
True Declination
0° 00' 54"
Sunlit
Object was in daylight at epoch
Visualization orbit readout
Latitude
Unknown
Longitude
Unknown
Altitude
Unknown
Speed
Unknown
Apparent Right ascension
Unknown
Apparent Declination
Unknown
Sunlit
N/A
Visualization observer readout
Local Sidereal Time
02:32:46
Azimuth
Unknown
Elevation
Unknown
Doppler factor
Unknown
Orbital elements
Apogee altitude
35,797.07 km
Perigee altitude
35,778.678 km
Semi-major axis
42,166.011 km
Eccentricity
0.00022
Inclination
0.0105°
RAAN
352.4669°
Arg. of periapsis
338.7438°
True anomaly
176.20126°
Mean anomaly
176.1996°
Eccentric anomaly
176.20043°
Mean motion
0.25067 °/min
Orbital period
1,436.16 mins
BSTAR
0
Loading maneuver chart data...
Computing Atmospheric mass density...
Loading historical data...
Loading historical data...
Loading historical data...
Loading historical data...
Loading historical data...
Loading historical data...
Loading historical data...

Documentation

Showing up to 5 results
|